• In Deutschland
  • Länderverzeichnis
  • Für 7 Tage
  • Wassertemperatur
  • Satellitenkarten
  • Wetterkarte
  • Widgets
  • user-avatar
    Anmelden

    Stündliche Wetter Bad Pyrmont

    Heute, 16 Dezember, Samstag

    Zeit Temperatur Niederschläge Wind Luftdruck Luftfeuchtigkeit
    00:00 +1°C° 0 mm 1 m/S 741 mmHg 93%
    01:00 +2°C° 0 mm 1 m/S 742 mmHg 93%
    02:00 +2°C° 0 mm 1 m/S 742 mmHg 94%
    03:00 +1°C° 0 mm 2 m/S 742 mmHg 94%
    04:00 +1°C° 0 mm 2 m/S 743 mmHg 95%
    05:00 0°C° 0 mm 3 m/S 743 mmHg 94%
    06:00 0°C° 0 mm 3 m/S 743 mmHg 93%
    07:00 0°C° 0 mm 3 m/S 743 mmHg 94%
    08:00 0°C° 0 mm 3 m/S 744 mmHg 93%
    09:00 0°C° 0 mm 4 m/S 744 mmHg 92%
    10:00 0°C° 0 mm 4 m/S 745 mmHg 91%
    11:00 0°C° 0 mm 4 m/S 745 mmHg 88%
    12:00 +1°C° 0 mm 4 m/S 746 mmHg 85%
    13:00 +1°C° 0 mm 5 m/S 746 mmHg 82%
    14:00 +1°C° 0 mm 5 m/S 746 mmHg 83%
    15:00 +1°C° 0 mm 4 m/S 747 mmHg 84%
    16:00 +1°C° 0 mm 4 m/S 747 mmHg 86%
    17:00 0°C° 0,1 mm 4 m/S 747 mmHg 87%
    18:00 0°C° 0,1 mm 4 m/S 748 mmHg 88%
    19:00 0°C° 0,1 mm 4 m/S 748 mmHg 90%
    20:00 0°C° 0,1 mm 4 m/S 749 mmHg 91%
    21:00 -1°C° 0,1 mm 4 m/S 749 mmHg 91%
    22:00 -1°C° 0,1 mm 4 m/S 750 mmHg 92%
    23:00 -1°C° 0,1 mm 4 m/S 750 mmHg 92%

    Morgen, 17 Dezember, Sonntag

    Zeit Temperatur Niederschläge Wind Luftdruck Luftfeuchtigkeit
    00:00 -1°C° 0,1 mm 4 m/S 750 mmHg 92%
    01:00 -1°C° 0,1 mm 4 m/S 751 mmHg 91%
    02:00 -1°C° 0 mm 4 m/S 751 mmHg 92%
    03:00 -1°C° 0 mm 4 m/S 751 mmHg 92%
    04:00 -1°C° 0 mm 4 m/S 752 mmHg 93%
    05:00 -2°C° 0 mm 4 m/S 752 mmHg 93%
    06:00 -1°C° 0 mm 3 m/S 753 mmHg 93%
    07:00 -1°C° 0 mm 3 m/S 753 mmHg 94%
    08:00 -1°C° 0 mm 3 m/S 754 mmHg 93%
    09:00 0°C° 0 mm 3 m/S 754 mmHg 92%
    10:00 0°C° 0 mm 3 m/S 755 mmHg 91%
    11:00 0°C° 0 mm 3 m/S 755 mmHg 89%
    12:00 +1°C° 0 mm 3 m/S 756 mmHg 86%
    13:00 +2°C° 0 mm 3 m/S 756 mmHg 84%
    14:00 +1°C° 0 mm 3 m/S 756 mmHg 87%
    15:00 +1°C° 0 mm 2 m/S 756 mmHg 90%
    16:00 +1°C° 0 mm 2 m/S 757 mmHg 93%
    17:00 +1°C° 0 mm 2 m/S 757 mmHg 93%
    18:00 -1°C° 0 mm 2 m/S 757 mmHg 93%
    19:00 -1°C° 0 mm 3 m/S 757 mmHg 94%
    20:00 -1°C° 0 mm 3 m/S 757 mmHg 93%
    21:00 0°C° 0 mm 3 m/S 757 mmHg 92%
    22:00 -1°C° 0 mm 4 m/S 757 mmHg 92%
    23:00 -1°C° 0,1 mm 4 m/S 756 mmHg 89%

    übermorgen, 18 Dezember, Montag

    Zeit Temperatur Niederschläge Wind Luftdruck Luftfeuchtigkeit
    00:00 0°C° 0,1 mm 5 m/S 756 mmHg 86%
    01:00 0°C° 0,1 mm 5 m/S 755 mmHg 83%
    02:00 -1°C° 0,7 mm 6 m/S 755 mmHg 84%
    03:00 -1°C° 0,7 mm 6 m/S 754 mmHg 86%
    04:00 -1°C° 0,7 mm 7 m/S 753 mmHg 88%
    05:00 -1°C° 0,6 mm 6 m/S 753 mmHg 90%
    06:00 +1°C° 0,6 mm 5 m/S 753 mmHg 92%
    07:00 +1°C° 0,6 mm 4 m/S 753 mmHg 94%
    08:00 +1°C° 0,2 mm 4 m/S 753 mmHg 93%
    09:00 +1°C° 0,2 mm 4 m/S 754 mmHg 92%
    10:00 +1°C° 0,2 mm 4 m/S 754 mmHg 92%
    11:00 +1°C° 0,1 mm 4 m/S 755 mmHg 91%
    12:00 +3°C° 0,1 mm 4 m/S 755 mmHg 91%
    13:00 +3°C° 0,1 mm 4 m/S 756 mmHg 90%
    14:00 +3°C° 0 mm 3 m/S 756 mmHg 91%
    15:00 +2°C° 0 mm 3 m/S 757 mmHg 91%
    16:00 +3°C° 0 mm 2 m/S 757 mmHg 92%
    17:00 +3°C° 0 mm 2 m/S 758 mmHg 92%
    18:00 +2°C° 0 mm 2 m/S 759 mmHg 92%
    19:00 +2°C° 0 mm 2 m/S 760 mmHg 93%
    20:00 +2°C° 0 mm 2 m/S 760 mmHg 93%
    21:00 +1°C° 0 mm 2 m/S 761 mmHg 93%
    22:00 +1°C° 0 mm 2 m/S 761 mmHg 93%
    23:00 +1°C° 0 mm 2 m/S 762 mmHg 93%

    19 Dezember, Dienstag

    Zeit Temperatur Niederschläge Wind Luftdruck Luftfeuchtigkeit
    00:00 +1°C° 0 mm 2 m/S 762 mmHg 93%
    01:00 -1°C° 0 mm 2 m/S 762 mmHg 92%
    02:00 -1°C° 0 mm 2 m/S 763 mmHg 92%
    03:00 -1°C° 0 mm 2 m/S 763 mmHg 92%
    04:00 -1°C° 0 mm 2 m/S 763 mmHg 92%
    05:00 +1°C° 0 mm 2 m/S 764 mmHg 92%
    06:00 +1°C° 0 mm 2 m/S 764 mmHg 92%
    07:00 +1°C° 0 mm 2 m/S 764 mmHg 92%
    08:00 +1°C° 0 mm 2 m/S 765 mmHg 93%
    09:00 +2°C° 0 mm 2 m/S 765 mmHg 94%
    10:00 +2°C° 0 mm 2 m/S 765 mmHg 94%
    11:00 +1°C° 0 mm 3 m/S 765 mmHg 94%
    12:00 +2°C° 0 mm 3 m/S 765 mmHg 94%
    13:00 +3°C° 0 mm 3 m/S 765 mmHg 93%
    14:00 +2°C° 0 mm 3 m/S 765 mmHg 94%
    15:00 +2°C° 0 mm 3 m/S 765 mmHg 95%
    16:00 +2°C° 0 mm 3 m/S 765 mmHg 95%
    17:00 +2°C° 0 mm 3 m/S 765 mmHg 95%
    18:00 +1°C° 0 mm 4 m/S 765 mmHg 96%
    19:00 +1°C° 0 mm 4 m/S 765 mmHg 96%
    20:00 +1°C° 0 mm 4 m/S 765 mmHg 95%
    21:00 +1°C° 0 mm 4 m/S 765 mmHg 94%
    22:00 +1°C° 0 mm 4 m/S 765 mmHg 94%
    23:00 +1°C° 0 mm 4 m/S 765 mmHg 94%

    20 Dezember, Mittwoch

    Zeit Temperatur Niederschläge Wind Luftdruck Luftfeuchtigkeit
    00:00 +1°C° 0 mm 4 m/S 765 mmHg 94%
    01:00 +1°C° 0 mm 4 m/S 765 mmHg 94%
    02:00 +3°C° 0,2 mm 4 m/S 765 mmHg 94%
    03:00 +3°C° 0,2 mm 4 m/S 764 mmHg 95%
    04:00 +3°C° 0,2 mm 4 m/S 764 mmHg 95%
    05:00 +4°C° 0,6 mm 4 m/S 764 mmHg 95%
    06:00 +4°C° 0,6 mm 4 m/S 764 mmHg 96%
    07:00 +4°C° 0,6 mm 4 m/S 764 mmHg 96%
    08:00 +4°C° 0,1 mm 4 m/S 764 mmHg 96%
    09:00 +5°C° 0,1 mm 4 m/S 764 mmHg 96%
    10:00 +5°C° 0,1 mm 4 m/S 764 mmHg 97%
    11:00 +5°C° 0 mm 4 m/S 764 mmHg 96%
    12:00 +6°C° 0 mm 4 m/S 764 mmHg 96%
    13:00 +6°C° 0 mm 4 m/S 764 mmHg 96%
    14:00 +6°C° 0,1 mm 4 m/S 764 mmHg 96%
    15:00 +6°C° 0,1 mm 4 m/S 764 mmHg 96%
    16:00 +6°C° 0,1 mm 4 m/S 764 mmHg 96%
    17:00 +7°C° 0,1 mm 4 m/S 764 mmHg 96%
    18:00 +7°C° 0,1 mm 4 m/S 764 mmHg 96%
    19:00 +7°C° 0,1 mm 4 m/S 764 mmHg 96%
    20:00 +7°C° 0,1 mm 4 m/S 764 mmHg 96%
    21:00 +7°C° 0,1 mm 4 m/S 765 mmHg 96%
    22:00 +8°C° 0,1 mm 4 m/S 765 mmHg 96%
    23:00 +8°C° 0 mm 4 m/S 765 mmHg 95%

    21 Dezember, Donnerstag

    Zeit Temperatur Niederschläge Wind Luftdruck Luftfeuchtigkeit
    00:00 +8°C° 0 mm 5 m/S 764 mmHg 95%
    01:00 +8°C° 0 mm 5 m/S 764 mmHg 94%
    02:00 +8°C° 0 mm 5 m/S 764 mmHg 93%
    03:00 +8°C° 0 mm 5 m/S 764 mmHg 93%
    04:00 +8°C° 0 mm 5 m/S 764 mmHg 93%
    05:00 +7°C° 0,1 mm 5 m/S 764 mmHg 93%
    06:00 +7°C° 0,1 mm 5 m/S 764 mmHg 93%
    07:00 +7°C° 0,1 mm 5 m/S 763 mmHg 93%
    08:00 +7°C° 0,1 mm 6 m/S 763 mmHg 92%
    09:00 +8°C° 0,1 mm 6 m/S 763 mmHg 92%
    10:00 +8°C° 0,1 mm 6 m/S 763 mmHg 91%
    11:00 +8°C° 0,1 mm 6 m/S 763 mmHg 91%
    12:00 +8°C° 0,1 mm 6 m/S 763 mmHg 91%
    13:00 +8°C° 0,1 mm 6 m/S 763 mmHg 90%
    14:00 +8°C° 0,1 mm 6 m/S 762 mmHg 91%
    15:00 +8°C° 0,1 mm 6 m/S 762 mmHg 91%
    16:00 +8°C° 0,1 mm 6 m/S 762 mmHg 91%
    17:00 +8°C° 0,4 mm 6 m/S 761 mmHg 91%
    18:00 +8°C° 0,4 mm 6 m/S 761 mmHg 91%
    19:00 +8°C° 0,4 mm 6 m/S 761 mmHg 91%
    20:00 +8°C° 1,1 mm 6 m/S 761 mmHg 91%
    21:00 +8°C° 1,1 mm 6 m/S 762 mmHg 91%
    22:00 +8°C° 1,1 mm 6 m/S 762 mmHg 92%
    23:00 +7°C° 0,2 mm 5 m/S 762 mmHg 91%
    Mehr zeigen